Location: Buckland
(65.9785°N, 161.1281°W)
Time: 22:09:28
(UTC+00:00)

PRISM - Pass Details

Date: 19 January 2021
Orbit: 565 x 584 km, 98.2° (Epoch: 06 March)

Event Time Altitude Azimuth Distance (km) Brightness Sun altitude
Rises 14:36:08 0° 20° (NNE) 2,785 ? -32.2°
Reaches altitude 10° 14:38:17 10° 19° (NNE) 1,886 ? -32.0°
Enters shadow 14:39:00 15° 17° (NNE) 1,595 ? -32.0°
